Home   Weather   Volgograd   Past weeks
Flag for Russia

Past Weather in Volgograd, Russia — Yesterday and Last 2 Weeks

Now
30 °F

Passing clouds.


Feels Like: 27 °F
Forecast: 36 / 32 °F
Wind: 3 mph from South

Location: Volgograd Airport

Current Time: Jan 28, 2020 at 7:38:20 am

Latest Report: Jan 28, 2020 at 6:30 am


Visibility: N/A

Pressure: 30.07 "Hg

Humidity: 93%

Dew Point: 28 °F

Location of VolgogradLocation

Past Weather in Volgograd — Graph

°F

Volgograd Temperature Yesterday

Maximum temperature yesterday: 34 °F (at 1:00 pm)
Minimum temperature yesterday: 23 °F (at 12:30 am)
Average temperature yesterday: 30 °F

High & Low Weather Summary for the Past Weeks

 TemperatureHumidityPressure
High36 °F (Jan 19, 12:00 pm)100% (Jan 13, 8:30 am)30.63 "Hg (Jan 13, 8:30 am)
Low12 °F (Jan 16, 1:30 am)56% (Jan 19, 12:00 pm)29.39 "Hg (Jan 23, 5:00 am)
Average29 °F88%30.12 "Hg
* Reported Jan 13 6:00 am — Jan 28 6:30 am, Volgograd. Weather by CustomWeather, © 2020

Note: Actual official high and low records may vary slightly from our data, if they occured in-between our weather recording intervals... More about our weather records

Volgograd Weather History for the Previous 24 Hours

Scroll right to see more
 ConditionsComfort  
Time TempWeatherWind HumidityBarometerVisibility
6:30 am
Tue, Jan 28
30 °FPassing clouds.3 mph93%30.07 "HgN/A
6:00 am30 °FPassing clouds.3 mph86%30.07 "HgN/A
5:30 am30 °FPassing clouds.3 mph93%30.07 "HgN/A
5:00 am30 °FPassing clouds.3 mph93%30.07 "HgN/A
4:30 am30 °FPassing clouds.3 mph93%30.07 "HgN/A
4:00 am30 °FPassing clouds.No wind93%30.07 "HgN/A
3:30 am30 °FPassing clouds.1 mph93%30.09 "HgN/A
3:00 am30 °FPassing clouds.3 mph86%30.09 "HgN/A
2:30 am32 °FPassing clouds.6 mph87%30.09 "HgN/A
2:00 am32 °FPassing clouds.6 mph87%30.09 "HgN/A
1:30 am30 °FPassing clouds.6 mph93%30.09 "HgN/A
1:00 am32 °FPassing clouds.6 mph87%30.09 "HgN/A
12:30 am32 °FPassing clouds.6 mph80%30.09 "HgN/A
12:00 am32 °FPassing clouds.8 mph87%30.07 "HgN/A
11:30 pm
Mon, Jan 27
32 °FPassing clouds.8 mph80%30.09 "HgN/A
11:00 pm32 °FPassing clouds.10 mph80%30.09 "HgN/A
10:30 pm32 °FPassing clouds.10 mph80%30.07 "HgN/A
10:00 pm32 °FPassing clouds.10 mph80%30.07 "HgN/A
9:30 pm32 °FPassing clouds.10 mph80%30.07 "HgN/A
9:00 pm32 °FPassing clouds.10 mph80%30.07 "HgN/A
8:30 pm32 °FPassing clouds.13 mph80%30.07 "HgN/A
8:00 pm32 °FPassing clouds.15 mph80%30.07 "HgN/A
7:30 pm32 °FPassing clouds.15 mph80%30.07 "HgN/A
7:00 pm32 °FPassing clouds.15 mph80%30.04 "HgN/A
6:30 pm32 °FPassing clouds.20 mph80%30.04 "HgN/A
6:00 pm34 °FPassing clouds.20 mph75%30.04 "HgN/A
5:30 pm34 °FPassing clouds.20 mph75%30.04 "HgN/A
5:00 pm34 °FPassing clouds.24 mph75%30.04 "HgN/A
4:30 pm34 °FPartly sunny.22 mph75%30.04 "HgN/A
4:00 pm34 °FPartly sunny.29 mph75%30.01 "HgN/A
3:30 pm34 °FPartly sunny.26 mph75%30.01 "HgN/A
3:00 pm34 °FPartly sunny.24 mph75%30.01 "HgN/A
2:30 pm34 °FPartly sunny.29 mph75%30.01 "HgN/A
2:00 pm34 °FPartly sunny.29 mph75%30.01 "HgN/A
1:30 pm34 °FPartly sunny.24 mph75%30.04 "HgN/A
1:00 pm34 °FPartly sunny.22 mph75%30.04 "HgN/A
12:30 pm32 °FPartly sunny.29 mph80%30.01 "HgN/A
12:00 pm32 °FPartly sunny.29 mph80%30.04 "HgN/A
11:30 am32 °FPartly sunny.24 mph80%30.04 "HgN/A
11:00 am30 °FScattered clouds.26 mph86%30.04 "HgN/A
10:30 am30 °FScattered clouds.26 mph86%30.01 "HgN/A
10:00 am28 °FPartly sunny.22 mph86%30.01 "HgN/A
9:30 am28 °FPartly sunny.17 mph86%30.04 "HgN/A
9:00 am28 °FScattered clouds.15 mph86%30.04 "HgN/A
8:30 am28 °FScattered clouds.17 mph86%30.04 "HgN/A
8:00 am28 °FSunny.13 mph86%30.04 "Hg10 mi
7:30 am28 °FPassing clouds.13 mph86%30.04 "HgN/A
7:00 am28 °FClear.15 mph86%30.04 "Hg10 mi
Weather by CustomWeather, © 2020

See weather overview

Advertising